Time,TemperatureF,DewpointF,PressureIn,WindDirection,WindDirectionDegrees,WindSpeedMPH,WindSpeedGustMPH,Humidity,HourlyPrecipIn,Conditions,Clouds,dailyrainin,SoftwareType,DateUTC
2013-03-20 00:00:00,11.0,5.0,-100.00,North,-999,-999.0,-999.0,77,-99.99,,,0.00,,2013-03-20 06:00:00,
2013-03-20 01:00:00,10.0,4.0,-100.00,North,-999,-999.0,-999.0,77,-99.99,,,0.00,,2013-03-20 07:00:00,
2013-03-20 01:52:00,10.0,4.0,-100.00,North,-999,-999.0,-999.0,77,-99.99,,,0.00,,2013-03-20 07:52:00,
2013-03-20 02:00:00,8.0,3.0,-100.00,North,-999,-999.0,-999.0,77,-99.99,,,0.00,,2013-03-20 08:00:00,
2013-03-20 03:00:00,7.0,1.0,-100.00,North,-999,-999.0,-999.0,77,-99.99,,,0.00,,2013-03-20 09:00:00,
2013-03-20 04:00:00,11.0,5.0,-100.00,North,-999,-999.0,-999.0,77,-99.99,,,0.01,,2013-03-20 10:00:00,
2013-03-20 05:00:00,13.0,8.0,-100.00,North,-999,-999.0,-999.0,77,-99.99,,,0.01,,2013-03-20 11:00:00,
2013-03-20 06:00:00,18.0,12.0,-100.00,North,-999,-999.0,-999.0,77,-99.99,,,0.01,,2013-03-20 12:00:00,
2013-03-20 07:00:00,19.0,13.0,-100.00,North,-999,-999.0,-999.0,77,-99.99,,,0.00,,2013-03-20 13:00:00,
2013-03-20 08:00:00,22.0,16.0,-100.00,North,-999,-999.0,-999.0,77,-99.99,,,0.00,,2013-03-20 14:00:00,
2013-03-20 09:00:00,29.0,23.0,-100.00,North,-999,-999.0,-999.0,77,-99.99,,,0.00,,2013-03-20 15:00:00,
2013-03-20 10:00:00,33.0,26.0,-100.00,North,-999,-999.0,-999.0,77,-99.99,,,0.00,,2013-03-20 16:00:00,
2013-03-20 11:00:00,35.0,28.0,-100.00,North,-999,-999.0,-999.0,77,-99.99,,,0.00,,2013-03-20 17:00:00,
2013-03-20 12:00:00,38.0,31.0,-100.00,North,-999,-999.0,-999.0,77,-99.99,,,0.00,,2013-03-20 18:00:00,
2013-03-20 13:00:00,41.0,34.0,-100.00,North,-999,-999.0,-999.0,77,-99.99,,,0.00,,2013-03-20 19:00:00,
2013-03-20 13:53:00,41.0,34.0,-100.00,North,-999,-999.0,-999.0,77,-99.99,,,0.00,,2013-03-20 19:53:00,
2013-03-20 14:00:00,38.0,32.0,-100.00,North,-999,-999.0,-999.0,77,-99.99,,,0.00,,2013-03-20 20:00:00,
2013-03-20 15:00:00,33.0,26.0,-100.00,North,-999,-999.0,-999.0,77,-99.99,,,-99.99,,2013-03-20 21:00:00,
2013-03-20 15:53:00,33.0,26.0,-100.00,North,-999,-999.0,-999.0,77,-99.99,,,-99.99,,2013-03-20 21:53:00,
2013-03-20 16:00:00,30.0,24.0,-100.00,North,-999,-999.0,-999.0,78,-99.99,,,-99.99,,2013-03-20 22:00:00,
2013-03-20 16:43:00,30.0,24.0,-100.00,North,-999,-999.0,-999.0,78,-99.99,,,-99.99,,2013-03-20 22:43:00,
2013-03-20 16:53:00,30.0,24.0,-100.00,North,-999,-999.0,-999.0,78,-99.99,,,-99.99,,2013-03-20 22:53:00,
2013-03-20 17:00:00,29.0,23.0,-100.00,North,-999,-999.0,-999.0,78,-99.99,,,-99.99,,2013-03-20 23:00:00,
2013-03-20 18:00:00,29.0,23.0,-100.00,North,-999,-999.0,-999.0,78,-99.99,,,-99.99,,2013-03-21 00:00:00,
2013-03-20 19:00:00,29.0,23.0,-100.00,North,-999,-999.0,-999.0,78,-99.99,,,-99.99,,2013-03-21 01:00:00,
2013-03-20 20:00:00,29.0,23.0,-100.00,North,-999,-999.0,-999.0,78,-99.99,,,-99.99,,2013-03-21 02:00:00,
2013-03-20 21:00:00,28.0,-99.9,-100.00,North,-999,-999.0,-999.0,-999,-99.99,,,-99.99,,2013-03-21 03:00:00,
2013-03-20 21:53:00,28.0,-99.9,-100.00,North,-999,-999.0,-999.0,-999,-99.99,,,-99.99,,2013-03-21 03:53:00,
2013-03-20 22:00:00,28.0,22.0,-100.00,North,-999,-999.0,-999.0,78,-99.99,,,-99.99,,2013-03-21 04:00:00,
2013-03-20 22:53:00,28.0,22.0,-100.00,North,-999,-999.0,-999.0,78,-99.99,,,-99.99,,2013-03-21 04:53:00,
2013-03-20 23:00:00,27.0,22.0,-100.00,North,-999,-999.0,-999.0,78,-99.99,,,-99.99,,2013-03-21 05:00:00,
2013-03-20 23:52:00,27.0,22.0,-100.00,North,-999,-999.0,-999.0,78,-99.99,,,-99.99,,2013-03-21 05:52:00,